| time (UTC) | temp F | wind direction | speed MPH | gust MPH | rain 1hr in | rain 24hr in | rain mn in | humidity % | barometer mb |
| 20260506134127 | 59 | 53 | 6.0 | 12.0 | 0.00 | 0.00 | 0.00 | 50 | 1009.8 |
| 20260506133623 | 59 | 16 | 7.0 | 15.0 | 0.00 | 0.00 | 0.00 | 51 | 1009.8 |
| 20260506133127 | 58 | 11 | 8.0 | 16.0 | 0.00 | 0.00 | 0.00 | 50 | 1009.8 |
| 20260506132624 | 58 | 7 | 6.0 | 12.0 | 0.00 | 0.00 | 0.00 | 50 | 1009.8 |
| 20260506131623 | 58 | 29 | 7.0 | 16.0 | 0.00 | 0.00 | 0.00 | 50 | 1009.8 |
| 20260506131126 | 58 | 44 | 6.0 | 16.0 | 0.00 | 0.00 | 0.00 | 49 | 1009.8 |
| 20260506130124 | 58 | 42 | 7.0 | 15.0 | 0.00 | 0.00 | 0.00 | 51 | 1009.7 |
| 20260506125623 | 58 | 56 | 8.0 | 17.0 | 0.00 | 0.00 | 0.00 | 49 | 1009.7 |
| 20260506125124 | 58 | 43 | 5.0 | 13.0 | 0.00 | 0.00 | 0.00 | 53 | 1009.7 |
| 20260506124623 | 58 | 60 | 8.0 | 16.0 | 0.00 | 0.00 | 0.00 | 52 | 1009.7 |
| 20260506124126 | 58 | 14 | 4.0 | 12.0 | 0.00 | 0.00 | 0.00 | 53 | 1009.7 |
| 20260506123623 | 58 | 1 | 9.0 | 19.0 | 0.00 | 0.00 | 0.00 | 53 | 1009.6 |
| 20260506123125 | 58 | 18 | 6.0 | 11.0 | 0.00 | 0.00 | 0.00 | 52 | 1009.6 |
| 20260506122623 | 58 | 23 | 6.0 | 15.0 | 0.00 | 0.00 | 0.00 | 52 | 1009.6 |
| 20260506122126 | 57 | 26 | 6.0 | 14.0 | 0.00 | 0.00 | 0.00 | 52 | 1009.6 |
| 20260506121623 | 57 | 41 | 6.0 | 12.0 | 0.00 | 0.00 | 0.00 | 51 | 1009.6 |
| 20260506120623 | 57 | 3 | 7.0 | 14.0 | 0.00 | 0.00 | 0.00 | 54 | 1009.6 |
| 20260506120127 | 58 | 25 | 8.0 | 18.0 | 0.00 | 0.00 | 0.00 | 53 | 1009.5 |
| 20260506115126 | 57 | 18 | 6.0 | 14.0 | 0.00 | 0.00 | 0.00 | 56 | 1009.5 |
| 20260506114623 | 57 | 6 | 9.0 | 18.0 | 0.00 | 0.00 | 0.00 | 57 | 1009.6 |
| 20260506114125 | 57 | 1 | 8.0 | 17.0 | 0.00 | 0.00 | 0.00 | 57 | 1009.6 |
| 20260506113623 | 57 | 353 | 8.0 | 15.0 | 0.00 | 0.00 | 0.00 | 56 | 1009.6 |
| 20260506113126 | 57 | 355 | 9.0 | 17.0 | 0.00 | 0.00 | 0.00 | 57 | 1009.6 |
| 20260506112623 | 57 | 348 | 9.0 | 17.0 | 0.00 | 0.00 | 0.00 | 56 | 1009.5 |
| 20260506112126 | 57 | 4 | 9.0 | 19.0 | 0.00 | 0.00 | 0.00 | 56 | 1009.6 |
| 20260506111623 | 58 | 24 | 7.0 | 13.0 | 0.00 | 0.00 | 0.00 | 56 | 1009.5 |
| 20260506110126 | 57 | 356 | 7.0 | 18.0 | 0.00 | 0.00 | 0.00 | 59 | 1009.5 |
| 20260506105625 | 57 | 355 | 11.0 | 21.0 | 0.00 | 0.00 | 0.00 | 60 | 1009.5 |
| 20260506104623 | 56 | 359 | 9.0 | 18.0 | 0.00 | 0.00 | 0.00 | 68 | 1009.5 |
| 20260506104124 | 56 | 1 | 7.0 | 15.0 | 0.00 | 0.00 | 0.00 | 68 | 1009.5 |
| 20260506103623 | 56 | 2 | 10.0 | 19.0 | 0.00 | 0.00 | 0.00 | 69 | 1009.5 |
| 20260506102623 | 56 | 355 | 10.0 | 20.0 | 0.00 | 0.00 | 0.00 | 71 | 1009.5 |
| 20260506102126 | 57 | 357 | 7.0 | 14.0 | 0.00 | 0.00 | 0.00 | 71 | 1009.4 |
| 20260506101623 | 56 | 2 | 9.0 | 17.0 | 0.00 | 0.00 | 0.00 | 71 | 1009.4 |
| 20260506101126 | 56 | 352 | 9.0 | 17.0 | 0.00 | 0.00 | 0.00 | 71 | 1009.5 |
| 20260506100623 | 55 | 357 | 11.0 | 18.0 | 0.00 | 0.00 | 0.00 | 71 | 1009.4 |
| 20260506100126 | 56 | 359 | 9.0 | 17.0 | 0.00 | 0.00 | 0.00 | 72 | 1009.4 |
| 20260506095623 | 55 | 356 | 9.0 | 23.0 | 0.00 | 0.00 | 0.00 | 73 | 1009.3 |
| 20260506095126 | 56 | 353 | 8.0 | 21.0 | 0.00 | 0.00 | 0.00 | 74 | 1009.4 |
| 20260506094623 | 56 | 360 | 10.0 | 17.0 | 0.00 | 0.00 | 0.00 | 73 | 1009.4 |
| 20260506094125 | 56 | 4 | 11.0 | 21.0 | 0.00 | 0.00 | 0.00 | 73 | 1009.3 |
| 20260506093623 | 56 | 3 | 9.0 | 18.0 | 0.00 | 0.00 | 0.00 | 75 | 1009.3 |
| 20260506093127 | 56 | 357 | 10.0 | 18.0 | 0.00 | 0.00 | 0.00 | 75 | 1009.3 |
| 20260506092623 | 56 | 357 | 9.0 | 21.0 | 0.00 | 0.00 | 0.00 | 75 | 1009.2 |
| 20260506092127 | 56 | 4 | 9.0 | 20.0 | 0.00 | 0.00 | 0.00 | 75 | 1009.2 |
| 20260506091623 | 57 | 8 | 9.0 | 20.0 | 0.00 | 0.00 | 0.00 | 74 | 1009.2 |
| 20260506091127 | 56 | 357 | 8.0 | 18.0 | 0.00 | 0.00 | 0.00 | 75 | 1009.2 |
| 20260506090624 | 56 | 1 | 9.0 | 21.0 | 0.00 | 0.00 | 0.00 | 75 | 1009.2 |
| 20260506085623 | 55 | 2 | 8.0 | 19.0 | 0.00 | 0.00 | 0.00 | 78 | 1009.2 |
| 20260506084623 | 54 | 357 | 9.0 | 20.0 | 0.00 | 0.00 | 0.00 | 78 | 1009.2 |
| 20260506083623 | 55 | 356 | 8.0 | 15.0 | 0.00 | 0.00 | 0.00 | 77 | 1009.1 |
| 20260506083125 | 56 | 16 | 6.0 | 15.0 | 0.00 | 0.00 | 0.00 | 77 | 1009.1 |
| 20260506082126 | 55 | 356 | 8.0 | 17.0 | 0.00 | 0.00 | 0.00 | 76 | 1009.0 |
| 20260506081623 | 55 | 8 | 8.0 | 13.0 | 0.00 | 0.00 | 0.00 | 77 | 1009.0 |
| 20260506081126 | 54 | 351 | 8.0 | 17.0 | 0.00 | 0.00 | 0.00 | 78 | 1009.0 |
| 20260506080623 | 54 | 356 | 10.0 | 17.0 | 0.00 | 0.00 | 0.00 | 78 | 1009.0 |
| 20260506080124 | 55 | 12 | 7.0 | 18.0 | 0.00 | 0.00 | 0.00 | 76 | 1008.9 |
| 20260506073126 | 53 | 2 | 6.0 | 13.0 | 0.00 | 0.00 | 0.00 | 84 | 1008.8 |
| 20260506072623 | 53 | 350 | 6.0 | 12.0 | 0.00 | 0.00 | 0.00 | 84 | 1008.8 |
| 20260506071623 | 53 | 344 | 8.0 | 15.0 | 0.00 | 0.00 | 0.00 | 83 | 1008.8 |
| 20260506071125 | 53 | 356 | 6.0 | 13.0 | 0.00 | 0.00 | 0.00 | 83 | 1008.8 |
| 20260506070623 | 53 | 348 | 5.0 | 13.0 | 0.00 | 0.00 | 0.00 | 83 | 1008.8 |
| 20260506062125 | 52 | 1 | 9.0 | 19.0 | 0.00 | 0.00 | 0.00 | 85 | 1008.6 |
| 20260506061623 | 52 | 353 | 7.0 | 14.0 | 0.00 | 0.00 | 0.00 | 85 | 1008.6 |
| 20260506061127 | 52 | 355 | 7.0 | 11.0 | 0.00 | 0.00 | 0.00 | 85 | 1008.5 |
| 20260506060623 | 51 | 351 | 6.0 | 15.0 | 0.00 | 0.00 | 0.00 | 85 | 1008.5 |
| 20260506060125 | 51 | 348 | 8.0 | 14.0 | 0.00 | 0.00 | 0.00 | 85 | 1008.5 |
| 20260506050623 | 51 | 353 | 8.0 | 15.0 | 0.00 | 0.00 | 0.00 | 85 | 1008.4 |
| 20260506045127 | 51 | 352 | 7.0 | 15.0 | 0.00 | 0.00 | 0.00 | 85 | 1008.5 |
| 20260506044126 | 51 | 352 | 8.0 | 13.0 | 0.00 | 0.00 | 0.00 | 85 | 1008.5 |
| 20260506043625 | 51 | 352 | 8.0 | 15.0 | 0.00 | 0.00 | 0.00 | 85 | 1008.6 |
| 20260506043125 | 51 | 352 | 8.0 | 14.0 | 0.00 | 0.00 | 0.00 | 85 | 1008.6 |
| 20260506042625 | 51 | 353 | 7.0 | 15.0 | 0.00 | 0.00 | 0.00 | 85 | 1008.6 |
| 20260506042126 | 51 | 351 | 7.0 | 15.0 | 0.00 | 0.00 | 0.00 | 85 | 1008.6 |
| 20260506041623 | 51 | 350 | 9.0 | 16.0 | 0.00 | 0.00 | 0.00 | 85 | 1008.6 |
| 20260506041127 | 51 | 352 | 9.0 | 14.0 | 0.00 | 0.00 | 0.00 | 84 | 1008.6 |
| 20260506040127 | 51 | 341 | 7.0 | 14.0 | 0.00 | 0.00 | 0.00 | 84 | 1008.7 |
| 20260506035623 | 51 | 348 | 9.0 | 14.0 | 0.00 | 0.00 | 0.00 | 84 | 1008.7 |
| 20260506035128 | 51 | 350 | 10.0 | 16.0 | 0.00 | 0.00 | 0.00 | 84 | 1008.6 |
| 20260506034623 | 51 | 359 | 8.0 | 16.0 | 0.00 | 0.00 | 0.00 | 84 | 1008.6 |
| 20260506034128 | 51 | 352 | 8.0 | 15.0 | 0.00 | 0.00 | 0.00 | 84 | 1008.7 |
| 20260506033623 | 51 | 2 | 8.0 | 15.0 | 0.00 | 0.00 | 0.00 | 84 | 1008.7 |
| 20260506033128 | 51 | 2 | 6.0 | 12.0 | 0.00 | 0.00 | 0.00 | 84 | 1008.7 |
| 20260506032623 | 51 | 352 | 7.0 | 17.0 | 0.00 | 0.00 | 0.00 | 84 | 1008.7 |
| 20260506032126 | 51 | 0 | 8.0 | 15.0 | 0.00 | 0.00 | 0.00 | 83 | 1008.7 |
| 20260506031623 | 51 | 357 | 10.0 | 21.0 | 0.00 | 0.00 | 0.00 | 83 | 1008.7 |
| 20260506031126 | 51 | 346 | 9.0 | 15.0 | 0.00 | 0.00 | 0.00 | 83 | 1008.8 |
| 20260506030623 | 51 | 357 | 8.0 | 15.0 | 0.00 | 0.00 | 0.00 | 83 | 1008.8 |
| 20260506025623 | 51 | 346 | 7.0 | 14.0 | 0.00 | 0.00 | 0.00 | 82 | 1008.9 |
| 20260506025126 | 51 | 356 | 7.0 | 16.0 | 0.00 | 0.00 | 0.00 | 83 | 1009.0 |
| 20260506024124 | 51 | 352 | 6.0 | 12.0 | 0.00 | 0.00 | 0.00 | 82 | 1009.0 |
| 20260506023623 | 51 | 359 | 5.0 | 12.0 | 0.00 | 0.00 | 0.00 | 82 | 1009.0 |
| 20260506023125 | 51 | 355 | 6.0 | 12.0 | 0.00 | 0.00 | 0.00 | 82 | 1009.0 |
| 20260506022623 | 51 | 358 | 6.0 | 12.0 | 0.00 | 0.00 | 0.00 | 82 | 1009.0 |
| 20260506022127 | 51 | 349 | 6.0 | 16.0 | 0.00 | 0.00 | 0.00 | 83 | 1009.0 |
| 20260506021623 | 51 | 354 | 7.0 | 16.0 | 0.00 | 0.00 | 0.00 | 83 | 1009.0 |
| 20260506021126 | 51 | 339 | 5.0 | 12.0 | 0.00 | 0.00 | 0.00 | 83 | 1009.0 |
| 20260506020623 | 51 | 2 | 6.0 | 11.0 | 0.00 | 0.00 | 0.00 | 83 | 1009.1 |
| 20260506020127 | 51 | 352 | 6.0 | 11.0 | 0.00 | 0.00 | 0.00 | 84 | 1009.0 |
| 20260506015125 | 51 | 349 | 7.0 | 15.0 | 0.00 | 0.00 | 0.00 | 84 | 1009.1 |
| 20260506014623 | 51 | 354 | 8.0 | 16.0 | 0.00 | 0.00 | 0.00 | 84 | 1009.1 |
| 20260506014128 | 51 | 352 | 8.0 | 14.0 | 0.00 | 0.00 | 0.00 | 84 | 1009.1 |
| 20260506013623 | 51 | 353 | 7.0 | 15.0 | 0.00 | 0.00 | 0.00 | 84 | 1009.1 |
| 20260506012623 | 51 | 348 | 6.0 | 14.0 | 0.00 | 0.00 | 0.00 | 84 | 1009.1 |
| 20260506012129 | 51 | 341 | 7.0 | 14.0 | 0.00 | 0.00 | 0.00 | 84 | 1009.1 |
| 20260506011623 | 51 | 353 | 7.0 | 16.0 | 0.00 | 0.00 | 0.00 | 84 | 1009.2 |
| 20260506011127 | 51 | 354 | 9.0 | 16.0 | 0.00 | 0.00 | 0.00 | 84 | 1009.2 |
| 20260506010623 | 51 | 348 | 9.0 | 17.0 | 0.00 | 0.00 | 0.00 | 84 | 1009.3 |
| 20260506010126 | 51 | 346 | 7.0 | 15.0 | 0.00 | 0.00 | 0.00 | 84 | 1009.3 |
| 20260506005623 | 51 | 347 | 7.0 | 15.0 | 0.00 | 0.00 | 0.00 | 84 | 1009.3 |
| 20260506005126 | 51 | 348 | 7.0 | 16.0 | 0.00 | 0.00 | 0.00 | 83 | 1009.4 |
| 20260506003623 | 51 | 359 | 6.0 | 15.0 | 0.00 | 0.00 | 0.00 | 83 | 1009.6 |
| 20260506003126 | 51 | 340 | 5.0 | 12.0 | 0.00 | 0.00 | 0.00 | 82 | 1009.6 |
| 20260506002623 | 51 | 350 | 4.0 | 11.0 | 0.00 | 0.00 | 0.00 | 82 | 1009.7 |
| 20260506002129 | 51 | 353 | 5.0 | 9.0 | 0.00 | 0.00 | 0.00 | 81 | 1009.7 |
| 20260506001623 | 51 | 350 | 8.0 | 16.0 | 0.00 | 0.00 | 0.00 | 81 | 1009.7 |
| 20260506001126 | 51 | 345 | 6.0 | 14.0 | 0.00 | 0.00 | 0.00 | 81 | 1009.8 |
| 20260506000623 | 51 | 6 | 7.0 | 14.0 | 0.00 | 0.00 | 0.00 | 81 | 1009.8 |
| 20260506000127 | 51 | 358 | 7.0 | 16.0 | 0.00 | 0.00 | 0.00 | 81 | 1009.8 |
| 20260505235623 | 51 | 2 | 7.0 | 16.0 | 0.00 | 0.00 | 0.00 | 81 | 1009.8 |
| 20260505235127 | 51 | 2 | 8.0 | 14.0 | 0.00 | 0.00 | 0.00 | 81 | 1009.8 |
| 20260505234623 | 51 | 345 | 7.0 | 15.0 | 0.00 | 0.00 | 0.00 | 81 | 1009.9 |
| 20260505234128 | 51 | 356 | 8.0 | 17.0 | 0.00 | 0.00 | 0.00 | 81 | 1009.9 |
| 20260505233623 | 51 | 356 | 7.0 | 12.0 | 0.00 | 0.00 | 0.00 | 81 | 1010.0 |
| 20260505233126 | 51 | 7 | 7.0 | 18.0 | 0.00 | 0.00 | 0.00 | 81 | 1010.0 |
| 20260505232127 | 51 | 359 | 9.0 | 17.0 | 0.00 | 0.00 | 0.00 | 81 | 1010.1 |
| 20260505231623 | 51 | 351 | 9.0 | 16.0 | 0.00 | 0.00 | 0.00 | 81 | 1010.1 |
| 20260505231126 | 51 | 349 | 7.0 | 15.0 | 0.00 | 0.00 | 0.00 | 81 | 1010.2 |
| 20260505230623 | 51 | 3 | 7.0 | 14.0 | 0.00 | 0.00 | 0.00 | 81 | 1010.2 |
| 20260505230127 | 51 | 353 | 7.0 | 14.0 | 0.00 | 0.00 | 0.00 | 82 | 1010.2 |
| 20260505225623 | 51 | 348 | 5.0 | 10.0 | 0.00 | 0.00 | 0.00 | 83 | 1010.2 |
| 20260505225126 | 51 | 356 | 6.0 | 14.0 | 0.00 | 0.00 | 0.00 | 82 | 1010.2 |
| 20260505224623 | 51 | 355 | 8.0 | 13.0 | 0.00 | 0.00 | 0.00 | 82 | 1010.1 |
| 20260505224125 | 51 | 355 | 7.0 | 15.0 | 0.00 | 0.00 | 0.00 | 82 | 1010.2 |
| 20260505223623 | 51 | 349 | 8.0 | 15.0 | 0.00 | 0.00 | 0.00 | 82 | 1010.2 |
| 20260505223125 | 51 | 344 | 7.0 | 16.0 | 0.00 | 0.00 | 0.00 | 81 | 1010.3 |
| 20260505222623 | 51 | 350 | 6.0 | 16.0 | 0.00 | 0.00 | 0.00 | 81 | 1010.3 |
| 20260505222126 | 51 | 340 | 6.0 | 16.0 | 0.00 | 0.00 | 0.00 | 80 | 1010.3 |
| 20260505221623 | 51 | 349 | 8.0 | 15.0 | 0.00 | 0.00 | 0.00 | 79 | 1010.4 |
| 20260505221127 | 51 | 354 | 7.0 | 15.0 | 0.00 | 0.00 | 0.00 | 78 | 1010.5 |
| 20260505220623 | 51 | 344 | 9.0 | 21.0 | 0.00 | 0.00 | 0.00 | 78 | 1010.4 |
| 20260505220127 | 51 | 347 | 8.0 | 18.0 | 0.00 | 0.00 | 0.00 | 77 | 1010.5 |
| 20260505215623 | 51 | 345 | 7.0 | 13.0 | 0.00 | 0.00 | 0.00 | 77 | 1010.5 |
| 20260505215126 | 51 | 359 | 5.0 | 13.0 | 0.00 | 0.00 | 0.00 | 77 | 1010.5 |
| 20260505214623 | 51 | 356 | 7.0 | 15.0 | 0.00 | 0.00 | 0.00 | 76 | 1010.5 |
| 20260505214126 | 51 | 354 | 8.0 | 13.0 | 0.00 | 0.00 | 0.00 | 76 | 1010.6 |
| 20260505213624 | 52 | 2 | 7.0 | 12.0 | 0.00 | 0.00 | 0.00 | 76 | 1010.6 |
| 20260505213125 | 52 | 4 | 7.0 | 15.0 | 0.00 | 0.00 | 0.00 | 75 | 1010.7 |
| 20260505212623 | 52 | 351 | 7.0 | 17.0 | 0.00 | 0.00 | 0.00 | 75 | 1010.7 |
| 20260505212127 | 52 | 2 | 6.0 | 15.0 | 0.00 | 0.00 | 0.00 | 75 | 1010.7 |
| 20260505211623 | 52 | 14 | 8.0 | 19.0 | 0.00 | 0.00 | 0.00 | 75 | 1010.7 |
| 20260505211126 | 52 | 8 | 7.0 | 13.0 | 0.00 | 0.00 | 0.00 | 75 | 1010.7 |
| 20260505210623 | 52 | 9 | 7.0 | 14.0 | 0.00 | 0.00 | 0.00 | 75 | 1010.7 |
| 20260505205126 | 52 | 7 | 8.0 | 17.0 | 0.00 | 0.00 | 0.00 | 74 | 1010.8 |
| 20260505204624 | 52 | 7 | 10.0 | 19.0 | 0.00 | 0.00 | 0.00 | 73 | 1010.8 |
| 20260505204127 | 52 | 3 | 7.0 | 14.0 | 0.00 | 0.00 | 0.00 | 73 | 1010.8 |
| 20260505203126 | 51 | 2 | 7.0 | 16.0 | 0.00 | 0.00 | 0.00 | 73 | 1010.8 |
| 20260505202624 | 52 | 358 | 8.0 | 19.0 | 0.00 | 0.00 | 0.00 | 72 | 1010.8 |
| 20260505202131 | 51 | 1 | 9.0 | 17.0 | 0.00 | 0.00 | 0.00 | 72 | 1010.8 |
| 20260505201126 | 52 | 1 | 6.0 | 12.0 | 0.00 | 0.00 | 0.00 | 73 | 1010.9 |
| 20260505200624 | 52 | 9 | 6.0 | 13.0 | 0.00 | 0.00 | 0.00 | 73 | 1010.8 |
| 20260505200129 | 52 | 16 | 5.0 | 11.0 | 0.00 | 0.00 | 0.00 | 74 | 1010.7 |
| 20260505195128 | 52 | 345 | 7.0 | 15.0 | 0.00 | 0.00 | 0.00 | 74 | 1010.6 |
| 20260505194624 | 52 | 353 | 10.0 | 19.0 | 0.00 | 0.00 | 0.00 | 74 | 1010.5 |
| 20260505194126 | 52 | 342 | 7.0 | 13.0 | 0.00 | 0.00 | 0.00 | 75 | 1010.5 |
| 20260505193623 | 52 | 352 | 8.0 | 15.0 | 0.00 | 0.00 | 0.00 | 75 | 1010.4 |
| 20260505193127 | 52 | 350 | 9.0 | 18.0 | 0.00 | 0.00 | 0.00 | 74 | 1010.4 |
| 20260505191623 | 53 | 347 | 9.0 | 18.0 | 0.00 | 0.00 | 0.00 | 74 | 1010.3 |
| 20260505191130 | 52 | 3 | 6.0 | 12.0 | 0.00 | 0.00 | 0.00 | 73 | 1010.3 |
| 20260505190623 | 52 | 5 | 9.0 | 18.0 | 0.00 | 0.00 | 0.00 | 73 | 1010.2 |
| 20260505190126 | 52 | 354 | 8.0 | 15.0 | 0.00 | 0.00 | 0.00 | 73 | 1010.2 |
| 20260505185623 | 53 | 360 | 7.0 | 16.0 | 0.00 | 0.00 | 0.00 | 74 | 1010.2 |
| 20260505185126 | 53 | 0 | 8.0 | 19.0 | 0.00 | 0.00 | 0.00 | 73 | 1010.2 |
| 20260505184128 | 53 | 348 | 8.0 | 22.0 | 0.00 | 0.00 | 0.00 | 74 | 1010.2 |
| 20260505183623 | 53 | 359 | 7.0 | 14.0 | 0.00 | 0.00 | 0.00 | 74 | 1010.1 |
| 20260505181125 | 53 | 1 | 7.0 | 14.0 | 0.00 | 0.00 | 0.00 | 74 | 1010.1 |
| 20260505174624 | 54 | 356 | 8.0 | 15.0 | 0.00 | 0.00 | 0.00 | 73 | 1010.2 |
| 20260505174126 | 54 | 352 | 6.0 | 12.0 | 0.00 | 0.00 | 0.00 | 74 | 1010.2 |
| 20260505173127 | 54 | 16 | 7.0 | 16.0 | 0.00 | 0.00 | 0.00 | 73 | 1010.2 |
| 20260505172623 | 54 | 358 | 9.0 | 19.0 | 0.00 | 0.00 | 0.00 | 72 | 1010.3 |
| 20260505172126 | 55 | 2 | 7.0 | 16.0 | 0.00 | 0.00 | 0.00 | 72 | 1010.3 |
| 20260505171623 | 55 | 13 | 6.0 | 17.0 | 0.00 | 0.00 | 0.00 | 72 | 1010.3 |
| 20260505171126 | 55 | 356 | 8.0 | 15.0 | 0.00 | 0.00 | 0.00 | 71 | 1010.2 |
| 20260505170624 | 55 | 3 | 8.0 | 17.0 | 0.00 | 0.00 | 0.00 | 71 | 1010.3 |
| 20260505170125 | 55 | 347 | 8.0 | 14.0 | 0.00 | 0.00 | 0.00 | 71 | 1010.2 |
| 20260505165624 | 55 | 5 | 8.0 | 15.0 | 0.00 | 0.00 | 0.00 | 71 | 1010.2 |
| 20260505165126 | 55 | 358 | 7.0 | 16.0 | 0.00 | 0.00 | 0.00 | 72 | 1010.2 |
| 20260505164127 | 56 | 359 | 7.0 | 13.0 | 0.00 | 0.00 | 0.00 | 71 | 1010.3 |
| 20260505163623 | 56 | 349 | 6.0 | 12.0 | 0.00 | 0.00 | 0.00 | 71 | 1010.3 |
| 20260505163127 | 55 | 3 | 8.0 | 15.0 | 0.00 | 0.00 | 0.00 | 71 | 1010.3 |
| 20260505162625 | 55 | 358 | 10.0 | 17.0 | 0.00 | 0.00 | 0.00 | 71 | 1010.3 |
| 20260505162125 | 55 | 351 | 9.0 | 18.0 | 0.00 | 0.00 | 0.00 | 70 | 1010.3 |
| 20260505161624 | 55 | 350 | 10.0 | 19.0 | 0.00 | 0.00 | 0.00 | 70 | 1010.3 |
| 20260505161126 | 55 | 13 | 7.0 | 14.0 | 0.00 | 0.00 | 0.00 | 70 | 1010.4 |
| 20260505160624 | 56 | 4 | 6.0 | 14.0 | 0.00 | 0.00 | 0.00 | 71 | 1010.4 |
| 20260505160127 | 55 | 1 | 7.0 | 15.0 | 0.00 | 0.00 | 0.00 | 71 | 1010.4 |
| 20260505152623 | 56 | 354 | 8.0 | 17.0 | 0.00 | 0.00 | 0.00 | 70 | 1010.4 |
| 20260505152127 | 56 | 352 | 10.0 | 17.0 | 0.00 | 0.00 | 0.00 | 69 | 1010.5 |
| 20260505151624 | 56 | 352 | 10.0 | 19.0 | 0.00 | 0.00 | 0.00 | 68 | 1010.5 |
| 20260505151126 | 56 | 353 | 11.0 | 19.0 | 0.00 | 0.00 | 0.00 | 68 | 1010.5 |
| 20260505150625 | 56 | 357 | 8.0 | 20.0 | 0.00 | 0.00 | 0.00 | 68 | 1010.5 |
| 20260505140624 | 56 | 358 | 8.0 | 17.0 | 0.00 | 0.00 | 0.00 | 70 | 1010.8 |
| 20260505140127 | 56 | 353 | 9.0 | 19.0 | 0.00 | 0.00 | 0.00 | 68 | 1010.8 |